SBI1152 UWKD-UWPS

Flight info

Callsign SBI1152
Flight time 0h 43m
Altitude 24000
Route APTAR1H APTAR DCT OTPIS P165 DOGIT T766 UGLAD UGLAD2K
Aircraft A320/M-SDE3FGHIRWY/LB1

Departure

Time 2026-04-25 10:59
Airport Kazan International Airport (UWKD)

Arrival

Time 2026-04-25 11:43
Airport Saransk International Airport (UWPS)
Time Latitude Longitude Altitude Speed Heading
2026-04-25 10:31 55.60731 49.29540 406 ft 0 kts 35°
2026-04-25 10:52 55.60745 49.29557 406 ft 5 kts 35°
2026-04-25 10:52 55.60757 49.29610 407 ft 3 kts 108°
2026-04-25 10:53 55.60751 49.29633 407 ft 1 kts 116°
2026-04-25 10:53 55.60724 49.29708 405 ft 18 kts 123°
2026-04-25 10:53 55.60679 49.29825 407 ft 9 kts 124°
2026-04-25 10:53 55.60647 49.29906 407 ft 7 kts 124°
2026-04-25 10:54 55.60603 49.30021 407 ft 8 kts 124°
2026-04-25 10:54 55.60581 49.30070 406 ft 7 kts 135°
2026-04-25 10:54 55.60496 49.30047 407 ft 16 kts 217°
2026-04-25 10:54 55.60399 49.29931 407 ft 18 kts 213°
2026-04-25 10:55 55.60291 49.29879 407 ft 15 kts 175°
2026-04-25 10:55 55.60201 49.29932 407 ft 13 kts 155°
2026-04-25 10:55 55.60123 49.29957 407 ft 11 kts 211°
2026-04-25 10:55 55.60121 49.29836 407 ft 14 kts 297°
2026-04-25 10:56 55.60204 49.29615 404 ft 23 kts 304°
2026-04-25 10:56 55.60294 49.29383 406 ft 22 kts 304°
2026-04-25 10:56 55.60373 49.29181 407 ft 20 kts 304°
2026-04-25 10:56 55.60461 49.28955 407 ft 21 kts 304°
2026-04-25 10:57 55.60519 49.28778 405 ft 11 kts 276°
2026-04-25 10:57 55.60472 49.28671 407 ft 5 kts 213°
2026-04-25 10:57 55.60471 49.28670 407 ft 0 kts 213°
2026-04-25 10:58 55.60457 49.28654 407 ft 7 kts 213°
2026-04-25 10:58 55.60386 49.28544 404 ft 15 kts 253°
2026-04-25 10:58 55.60400 49.28459 408 ft 0 kts 304°
2026-04-25 10:58 55.60407 49.28441 405 ft 17 kts 304°
2026-04-25 10:59 55.60664 49.27783 406 ft 109 kts 304°
2026-04-25 10:59 55.61219 49.26335 644 ft 159 kts 303°
2026-04-25 10:59 55.61756 49.24670 1656 ft 156 kts 282°
2026-04-25 10:59 55.61608 49.22658 2143 ft 181 kts 250°
2026-04-25 11:00 55.61071 49.20527 2520 ft 201 kts 251°
2026-04-25 11:00 55.60783 49.19346 2756 ft 211 kts 251°
2026-04-25 11:00 55.60557 49.18420 3000 ft 214 kts 252°
2026-04-25 11:00 55.60023 49.15888 3531 ft 234 kts 252°
2026-04-25 11:01 55.59375 49.13188 4413 ft 242 kts 251°
2026-04-25 11:01 55.58707 49.10448 5388 ft 247 kts 250°
2026-04-25 11:01 55.58028 49.07652 6367 ft 249 kts 250°
2026-04-25 11:01 55.57353 49.04840 7304 ft 253 kts 249°
2026-04-25 11:02 55.56664 49.01947 8306 ft 255 kts 249°
2026-04-25 11:02 55.55973 48.99021 9281 ft 258 kts 248°
2026-04-25 11:02 55.55276 48.96062 9893 ft 274 kts 248°
2026-04-25 11:02 55.54535 48.92909 10431 ft 289 kts 248°
2026-04-25 11:03 55.53748 48.89582 11266 ft 294 kts 248°
2026-04-25 11:03 55.52949 48.86216 12131 ft 299 kts 247°
2026-04-25 11:03 55.52148 48.82830 12991 ft 303 kts 247°
2026-04-25 11:03 55.51332 48.79372 13790 ft 307 kts 247°
2026-04-25 11:04 55.50503 48.75864 14546 ft 310 kts 247°
2026-04-25 11:04 55.49672 48.72363 15293 ft 314 kts 247°
2026-04-25 11:04 55.48811 48.68741 16085 ft 317 kts 247°
2026-04-25 11:04 55.48244 48.66365 16580 ft 319 kts 247°
2026-04-25 11:05 55.47086 48.61538 17570 ft 324 kts 246°
2026-04-25 11:05 55.46203 48.57860 18245 ft 327 kts 247°
2026-04-25 11:05 55.45279 48.54178 18863 ft 331 kts 242°
2026-04-25 11:05 55.44028 48.50726 19404 ft 336 kts 236°
2026-04-25 11:06 55.43132 48.48492 19506 ft 336 kts 236°
2026-04-25 11:06 55.41774 48.45125 19555 ft 336 kts 236°
2026-04-25 11:06 55.40413 48.41762 19557 ft 336 kts 236°
2026-04-25 11:06 55.39043 48.38388 19557 ft 336 kts 236°
2026-04-25 11:07 55.37688 48.35048 19566 ft 336 kts 236°
2026-04-25 11:07 55.36334 48.31712 19565 ft 336 kts 236°
2026-04-25 11:07 55.34970 48.28350 19565 ft 337 kts 236°
2026-04-25 11:07 55.33601 48.24977 19562 ft 338 kts 237°
2026-04-25 11:08 55.32271 48.21704 19565 ft 338 kts 237°
2026-04-25 11:08 55.30987 48.18552 19570 ft 339 kts 237°
2026-04-25 11:08 55.29663 48.15298 19571 ft 339 kts 237°
2026-04-25 11:08 55.28268 48.11876 19570 ft 339 kts 237°
2026-04-25 11:09 55.26902 48.08539 19571 ft 339 kts 237°
2026-04-25 11:09 55.25539 48.05216 19570 ft 339 kts 237°
2026-04-25 11:09 55.24152 48.01834 19571 ft 339 kts 237°
2026-04-25 11:09 55.22769 47.98463 19571 ft 339 kts 237°
2026-04-25 11:10 55.21394 47.95113 19573 ft 339 kts 237°
2026-04-25 11:10 55.20472 47.92867 19574 ft 339 kts 237°
2026-04-25 11:10 55.18628 47.88379 19573 ft 339 kts 237°
2026-04-25 11:10 55.17251 47.85034 19565 ft 339 kts 238°
2026-04-25 11:11 55.15906 47.81775 19574 ft 342 kts 238°
2026-04-25 11:11 55.14469 47.78298 19576 ft 342 kts 238°
2026-04-25 11:11 55.13067 47.74916 19576 ft 342 kts 238°
2026-04-25 11:11 55.11668 47.71553 19576 ft 342 kts 238°
2026-04-25 11:12 55.10260 47.68179 19574 ft 343 kts 238°
2026-04-25 11:12 55.08856 47.64818 19577 ft 343 kts 238°
2026-04-25 11:12 55.07451 47.61457 19576 ft 343 kts 238°
2026-04-25 11:12 55.06043 47.58086 19577 ft 343 kts 238°
2026-04-25 11:13 55.04641 47.54732 19576 ft 343 kts 238°
2026-04-25 11:13 55.03250 47.51407 19586 ft 343 kts 238°
2026-04-25 11:13 55.01846 47.48051 19584 ft 342 kts 238°
2026-04-25 11:13 55.00437 47.44689 19585 ft 342 kts 238°
2026-04-25 11:14 54.99032 47.41339 19584 ft 343 kts 238°
2026-04-25 11:14 54.97622 47.37984 19585 ft 343 kts 238°
2026-04-25 11:14 54.96210 47.34634 19590 ft 343 kts 238°
2026-04-25 11:14 54.94797 47.31290 19590 ft 343 kts 238°
2026-04-25 11:15 54.93384 47.27947 19589 ft 343 kts 238°
2026-04-25 11:15 54.91969 47.24600 19590 ft 343 kts 238°
2026-04-25 11:15 54.90553 47.21257 19590 ft 343 kts 238°
2026-04-25 11:15 54.89139 47.17927 19598 ft 343 kts 238°
2026-04-25 11:16 54.86495 47.11306 19621 ft 344 kts 238°
2026-04-25 11:16 54.84889 47.08164 20173 ft 354 kts 225°
2026-04-25 11:16 54.82856 47.05731 20747 ft 365 kts 214°
2026-04-25 11:17 54.80400 47.04035 21214 ft 383 kts 200°
2026-04-25 11:17 54.77752 47.03351 21722 ft 396 kts 189°
2026-04-25 11:17 54.74974 47.02978 22246 ft 401 kts 189°
2026-04-25 11:17 54.72182 47.02464 22784 ft 402 kts 198°
2026-04-25 11:18 54.69576 47.00845 23245 ft 395 kts 216°
2026-04-25 11:18 54.67392 46.98067 23536 ft 386 kts 232°
2026-04-25 11:18 54.65793 46.94424 23603 ft 373 kts 249°
2026-04-25 11:18 54.64778 46.90403 23609 ft 367 kts 255°
2026-04-25 11:19 54.63825 46.86292 23609 ft 368 kts 255°
2026-04-25 11:19 54.62862 46.82170 23617 ft 368 kts 255°
2026-04-25 11:19 54.61896 46.78070 23617 ft 368 kts 255°
2026-04-25 11:19 54.60947 46.74064 23551 ft 365 kts 256°
2026-04-25 11:20 54.59969 46.69961 23088 ft 361 kts 255°
2026-04-25 11:20 54.58853 46.66061 22545 ft 363 kts 250°
2026-04-25 11:20 54.57661 46.62244 22059 ft 359 kts 249°
2026-04-25 11:20 54.56486 46.58479 21606 ft 355 kts 249°
2026-04-25 11:21 54.55323 46.54750 21163 ft 351 kts 249°
2026-04-25 11:21 54.54172 46.51056 20712 ft 348 kts 248°
2026-04-25 11:21 54.53031 46.47406 20287 ft 344 kts 248°
2026-04-25 11:21 54.51902 46.43800 19870 ft 341 kts 248°
2026-04-25 11:22 54.50780 46.40220 19466 ft 337 kts 247°
2026-04-25 11:22 54.50043 46.37872 19178 ft 335 kts 247°
2026-04-25 11:22 54.48569 46.33180 18647 ft 331 kts 246°
2026-04-25 11:22 54.47477 46.29721 18253 ft 328 kts 246°
2026-04-25 11:23 54.46390 46.26284 17783 ft 326 kts 246°
2026-04-25 11:23 54.45310 46.22866 17305 ft 324 kts 246°
2026-04-25 11:23 54.44249 46.19514 16854 ft 321 kts 246°
2026-04-25 11:23 54.43175 46.16131 16400 ft 318 kts 246°
2026-04-25 11:24 54.42194 46.13048 16008 ft 316 kts 246°
2026-04-25 11:24 54.41130 46.09704 15584 ft 314 kts 246°
2026-04-25 11:24 54.40083 46.06411 15166 ft 312 kts 246°
2026-04-25 11:24 54.39056 46.03180 14777 ft 310 kts 245°
2026-04-25 11:25 54.38026 45.99947 14361 ft 308 kts 245°
2026-04-25 11:25 54.37001 45.96731 13987 ft 306 kts 245°
2026-04-25 11:25 54.35991 45.93574 13610 ft 304 kts 245°
2026-04-25 11:25 54.34976 45.90412 13233 ft 301 kts 245°
2026-04-25 11:26 54.33983 45.87316 12840 ft 298 kts 245°
2026-04-25 11:26 54.33338 45.85311 12589 ft 297 kts 245°
2026-04-25 11:26 54.32341 45.82207 12100 ft 305 kts 245°
2026-04-25 11:26 54.31274 45.78795 11337 ft 341 kts 245°
2026-04-25 11:27 54.30136 45.75142 10518 ft 347 kts 244°
2026-04-25 11:27 54.29011 45.71651 10295 ft 332 kts 244°
2026-04-25 11:27 54.28213 45.69191 10203 ft 319 kts 244°
2026-04-25 11:27 54.27496 45.66997 10115 ft 309 kts 244°
2026-04-25 11:28 54.26152 45.62823 9936 ft 289 kts 245°
2026-04-25 11:28 54.25285 45.59800 9689 ft 278 kts 255°
2026-04-25 11:28 54.24853 45.56586 9039 ft 281 kts 257°
2026-04-25 11:28 54.23884 45.53623 8209 ft 297 kts 228°
2026-04-25 11:29 54.22044 45.51848 7351 ft 316 kts 198°
2026-04-25 11:29 54.19799 45.51551 6464 ft 330 kts 184°
2026-04-25 11:29 54.17479 45.51573 5538 ft 336 kts 184°
2026-04-25 11:29 54.15182 45.51635 5037 ft 330 kts 180°
2026-04-25 11:30 54.13689 45.52206 4922 ft 325 kts 162°
2026-04-25 11:30 54.11248 45.54967 4895 ft 307 kts 138°
2026-04-25 11:30 54.10073 45.57868 4925 ft 292 kts 113°
2026-04-25 11:30 54.09758 45.61163 4912 ft 274 kts 83°
2026-04-25 11:31 54.10290 45.64084 4860 ft 255 kts 56°
2026-04-25 11:31 54.11416 45.66275 4771 ft 234 kts 29°
2026-04-25 11:31 54.12774 45.67443 4889 ft 205 kts
2026-04-25 11:31 54.13672 45.67711 4917 ft 188 kts 354°
2026-04-25 11:32 54.14888 45.67514 4902 ft 165 kts 336°
2026-04-25 11:32 54.15880 45.66842 4890 ft 143 kts 321°
2026-04-25 11:32 54.16654 45.65944 4866 ft 128 kts 315°
2026-04-25 11:32 54.17376 45.65047 4653 ft 131 kts 315°
2026-04-25 11:33 54.18119 45.64123 4496 ft 128 kts 315°
2026-04-25 11:33 54.18828 45.63245 4581 ft 126 kts 315°
2026-04-25 11:33 54.19538 45.62362 4636 ft 126 kts 315°
2026-04-25 11:33 54.20282 45.61429 4709 ft 138 kts 314°
2026-04-25 11:34 54.20945 45.60247 4563 ft 138 kts 303°
2026-04-25 11:34 54.21546 45.59002 4472 ft 137 kts 303°
2026-04-25 11:34 54.22149 45.57743 4424 ft 137 kts 302°
2026-04-25 11:34 54.22758 45.56472 4393 ft 137 kts 303°
2026-04-25 11:35 54.23363 45.55215 4358 ft 137 kts 303°
2026-04-25 11:35 54.23967 45.53956 4326 ft 137 kts 303°
2026-04-25 11:35 54.24570 45.52691 4298 ft 138 kts 303°
2026-04-25 11:35 54.25228 45.51296 4270 ft 157 kts 303°
2026-04-25 11:36 54.25930 45.49820 4252 ft 161 kts 304°
2026-04-25 11:36 54.26638 45.48341 4209 ft 161 kts 304°
2026-04-25 11:36 54.27341 45.46874 4157 ft 161 kts 304°
2026-04-25 11:36 54.28049 45.45396 4128 ft 161 kts 304°
2026-04-25 11:37 54.28771 45.43883 4085 ft 167 kts 304°
2026-04-25 11:37 54.29433 45.42238 4036 ft 164 kts 286°
2026-04-25 11:37 54.29375 45.40376 3972 ft 165 kts 247°
2026-04-25 11:37 54.28692 45.39155 3840 ft 173 kts 220°
2026-04-25 11:38 54.27670 45.38038 3635 ft 173 kts 219°
2026-04-25 11:38 54.26649 45.36915 3385 ft 173 kts 219°
2026-04-25 11:38 54.25666 45.35833 3150 ft 163 kts 220°
2026-04-25 11:38 54.24746 45.34824 2987 ft 148 kts 220°
2026-04-25 11:39 54.23924 45.33924 2934 ft 134 kts 221°
2026-04-25 11:39 54.23161 45.33082 2859 ft 127 kts 223°
2026-04-25 11:39 54.22432 45.32271 2705 ft 125 kts 223°
2026-04-25 11:39 54.21706 45.31462 2591 ft 124 kts 222°
2026-04-25 11:40 54.20985 45.30658 2537 ft 124 kts 222°
2026-04-25 11:40 54.20268 45.29860 2527 ft 122 kts 223°
2026-04-25 11:40 54.19553 45.29064 2516 ft 122 kts 223°
2026-04-25 11:40 54.18797 45.28315 2185 ft 127 kts 217°
2026-04-25 11:41 54.18023 45.27535 1781 ft 129 kts 223°
2026-04-25 11:41 54.17308 45.26664 1535 ft 124 kts 225°
2026-04-25 11:41 54.16619 45.25812 1306 ft 125 kts 220°
2026-04-25 11:41 54.15859 45.25024 1161 ft 126 kts 220°
2026-04-25 11:42 54.15145 45.24228 1003 ft 124 kts 221°
2026-04-25 11:42 54.14406 45.23413 890 ft 125 kts 221°
2026-04-25 11:42 54.13679 45.22570 695 ft 126 kts 217°
2026-04-25 11:42 54.12982 45.21772 643 ft 104 kts 213°
2026-04-25 11:43 54.12525 45.21263 647 ft 54 kts 213°
2026-04-25 11:43 54.12324 45.21030 643 ft 31 kts 215°
2026-04-25 11:43 54.12255 45.20989 643 ft 2 kts 88°